Total_Precipitation_Accumulation
0.31 0.36 0.42 0.40 0.50 0.51 0.48 0.45 0.25 0.20 0.61 0.84 1.11 1.77 2.14 2.94 3.87 2.28 1.85 1.42 0.31 0.05 0.01 0.00 0.00 0.00 0.00 0.00 0.00 0.00 0.01 0.01 0.01 0.01 0.02 0.02 0.03 0.04
0.35 0.38 0.39 0.51 0.54 0.47 0.36 0.31 0.32 0.20 0.30 0.69 0.81 1.03 1.56 2.33 2.86 3.25 2.17 1.17 0.47 0.13 0.01 0.00 0.00 0.00 0.00 0.00 0.00 0.00 0.00 0.00 0.00 0.00 0.01 0.01 0.02 0.03
0.34 0.47 0.51 0.52 0.50 0.42 0.24 0.23 0.32 0.23 0.23 0.50 0.64 0.74 1.06 1.76 1.97 2.80 2.88 1.12 0.54 0.27 0.05 0.00 0.00 0.00 0.00 0.00 0.00 0.00 0.00 0.00 0.00 0.00 0.00 0.00 0.00 0.01
0.42 0.43 0.53 0.50 0.39 0.31 0.22 0.19 0.27 0.29 0.27 0.47 0.63 0.92 0.99 1.41 1.86 2.11 2.82 1.54 0.51 0.32 0.19 0.06 0.00 0.00 0.00 0.00 0.00 0.00 0.00 0.00 0.00 0.00 0.00 0.00 0.00 0.00
0.46 0.48 0.55 0.46 0.41 0.33 0.22 0.20 0.26 0.34 0.38 0.45 0.57 0.75 1.05 1.04 1.65 1.96 2.27 1.52 0.59 0.39 0.27 0.21 0.11 0.01 0.00 0.00 0.00 0.00 0.00 0.00 0.00 0.00 0.00 0.00 0.00 0.00
0.46 0.44 0.52 0.51 0.46 0.36 0.27 0.26 0.29 0.37 0.42 0.37 0.38 0.52 0.93 1.03 1.39 1.90 2.09 1.68 0.77 0.41 0.38 0.28 0.24 0.19 0.05 0.00 0.00 0.00 0.00 0.00 0.00 0.00 0.00 0.00 0.00 0.00
0.33 0.33 0.43 0.45 0.43 0.47 0.36 0.31 0.26 0.22 0.36 0.26 0.29 0.45 0.69 1.06 1.28 1.53 1.81 1.50 1.25 0.49 0.34 0.32 0.22 0.19 0.17 0.10 0.02 0.00 0.00 0.00 0.00 0.00 0.00 0.00 0.00 0.00
0.38 0.32 0.33 0.42 0.36 0.32 0.38 0.39 0.35 0.29 0.22 0.24 0.26 0.35 0.52 0.95 1.15 1.25 1.25 1.21 1.64 1.09 0.40 0.37 0.22 0.10 0.04 0.04 0.03 0.00 0.00 0.01 0.01 0.00 0.00 0.00 0.00 0.00
0.25 0.19 0.20 0.34 0.32 0.26 0.27 0.21 0.31 0.36 0.32 0.23 0.23 0.31 0.47 1.00 1.00 1.01 0.93 1.09 1.32 0.97 0.66 0.42 0.41 0.18 0.04 0.04 0.03 0.01 0.00 0.01 0.02 0.01 0.01 0.01 0.01 0.00
0.11 0.14 0.17 0.28 0.41 0.26 0.17 0.21 0.22 0.27 0.34 0.30 0.26 0.34 0.60 1.02 0.97 0.94 0.86 0.86 1.11 0.81 0.56 0.57 0.47 0.40 0.16 0.09 0.14 0.07 0.04 0.02 0.02 0.02 0.02 0.03 0.02 0.01
0.06 0.10 0.14 0.30 0.38 0.29 0.18 0.23 0.21 0.28 0.33 0.39 0.37 0.50 0.80 1.26 1.09 0.83 0.69 0.66 0.79 0.96 0.81 0.70 0.58 0.46 0.33 0.24 0.29 0.38 0.32 0.22 0.15 0.10 0.08 0.08 0.06 0.04
0.02 0.06 0.18 0.27 0.28 0.23 0.18 0.19 0.23 0.37 0.30 0.27 0.31 0.43 0.58 1.04 1.20 0.91 0.76 0.67 0.77 0.74 0.93 0.70 0.75 0.69 0.70 0.61 0.35 0.31 0.30 0.41 0.39 0.36 0.32 0.29 0.32 0.22
0.01 0.06 0.14 0.12 0.11 0.12 0.12 0.19 0.40 0.36 0.38 0.31 0.26 0.31 0.45 0.78 1.07 1.06 0.82 0.79 0.90 0.76 0.92 0.86 0.82 0.82 0.70 0.73 0.69 0.54 0.42 0.31 0.19 0.23 0.26 0.31 0.34 0.37
0.01 0.04 0.06 0.04 0.04 0.04 0.09 0.17 0.27 0.24 0.23 0.25 0.25 0.37 0.51 0.73 1.02 1.14 1.06 0.96 1.08 0.95 0.78 0.68 0.82 0.92 0.82 0.67 0.76 0.87 0.70 0.55 0.33 0.17 0.12 0.24 0.28 0.37
0.00 0.00 0.01 0.01 0.01 0.02 0.07 0.12 0.16 0.16 0.15 0.22 0.31 0.52 0.68 0.72 0.70 0.84 0.85 0.74 0.88 1.09 0.97 0.82 0.82 0.88 0.95 0.85 0.80 0.78 0.81 0.66 0.58 0.45 0.26 0.17 0.13 0.12
0.00 0.00 0.00 0.00 0.00 0.01 0.02 0.05 0.10 0.09 0.08 0.18 0.28 0.39 0.42 0.45 0.62 0.71 0.70 0.61 0.77 1.27 1.38 1.31 1.20 1.19 1.10 1.07 0.96 0.87 0.81 0.84 0.75 0.70 0.69 0.57 0.37 0.26
0.00 0.00 0.00 0.00 0.00 0.00 0.00 0.00 0.01 0.01 0.02 0.07 0.14 0.17 0.19 0.24 0.42 0.57 0.64 0.58 0.81 1.03 1.22 1.43 1.47 1.29 1.26 1.18 1.14 1.14 1.06 0.98 0.93 0.86 0.82 0.90 0.94 0.80
0.00 0.00 0.00 0.00 0.00 0.00 0.00 0.00 0.00 0.00 0.00 0.00 0.02 0.04 0.07 0.12 0.22 0.31 0.37 0.44 0.62 0.74 0.87 0.99 1.06 1.18 1.12 1.31 1.43 1.47 1.38 1.39 1.35 1.12 1.00 0.99 1.12 1.09
0.00 0.00 0.00 0.00 0.00 0.00 0.00 0.00 0.00 0.00 0.00 0.00 0.00 0.00 0.00 0.01 0.03 0.10 0.18 0.23 0.36 0.42 0.50 0.57 0.63 0.63 0.74 0.91 0.94 0.89 1.00 1.08 1.15 1.22 1.29 1.27 1.27 1.30
0.00 0.00 0.00 0.00 0.00 0.00 0.00 0.00 0.00 0.00 0.00 0.00 0.00 0.00 0.00 0.00 0.00 0.01 0.02 0.04 0.07 0.11 0.16 0.19 0.23 0.28 0.33 0.42 0.47 0.48 0.41 0.46 0.46 0.47 0.52 0.57 0.72 0.86
0.00 0.00 0.00 0.00 0.00 0.00 0.00 0.00 0.00 0.00 0.00 0.00 0.00 0.00 0.00 0.00 0.00 0.00 0.01 0.01 0.02 0.02 0.02 0.02 0.02 0.02 0.04 0.04 0.06 0.07 0.07 0.08 0.11 0.14 0.16 0.18 0.19 0.22
0.00 0.00 0.00 0.00 0.00 0.00 0.00 0.00 0.00 0.00 0.00 0.00 0.00 0.00 0.00 0.00 0.00 0.00 0.00 0.00 0.00 0.00 0.01 0.01 0.01 0.01 0.02 0.02 0.01 0.02 0.01 0.01 0.04 0.05 0.06 0.08 0.11 0.14
0.00 0.00 0.00 0.00 0.00 0.00 0.00 0.00 0.00 0.00 0.00 0.00 0.00 0.00 0.00 0.00 0.00 0.00 0.00 0.00 0.00 0.00 0.00 0.00 0.00 0.00 0.00 0.00 0.01 0.01 0.00 0.00 0.01 0.02 0.03 0.03 0.03 0.04